Weather Roundup
Issued by NWS

Home | Current Version | Previous Version | Graphics & Text | Print | Product List | Glossary Off
Versions: 1 2 3 4 5 6 7 8 9 10 11 12 13 14 15 16 17 18 19 20 21 22 23 24 25 26 27 28 29 30 31 32 33 34 35 36 37 38 39 40 41 42 43 44 45 46 47 48 49 50

000
NZUS93 KARX 241959
HRRWXR

CURRENT HOURLY OBSERVATIONS ACROSS
MUCH OF THE UPPER MISSISSIPPI VALLEY
NATIONAL WEATHER SERVICE LA CROSSE WI
300 PM CDT FRI MAR 24 2017


...SOUTHEAST MINNESOTA...


CITY           SKY/WX    TMP DP  RH WIND       PRES   REMARKS
ROCHESTER      CLOUDY    39  38  96 N14       30.01F WCI  31
ROCHESTER/MAYO CLOUDY    40  40 100 N7        30.02S
WINONA         CLOUDY    41  37  87 NE7       30.03F
AUSTIN         CLOUDY    39  37  93 N14G21    29.99F WCI  31
ALBERT LEA     CLOUDY    39  37  93 N17       30.00F FOG     WCI  30
DODGE CENTER   CLOUDY    39  37  93 N12       30.03S WCI  32
PRESTON        CLOUDY    40  38  93 N13G18    29.99S WCI  32
OWATONNA       CLOUDY    39  36  87 N12       30.05R FOG     WCI  32
FARIBAULT      CLOUDY    43  37  81 N12       30.06S
$$

...ELSEWHERE IN MINNESOTA...


CITY           SKY/WX    TMP DP  RH WIND       PRES   REMARKS
MINNEAPOLIS    CLOUDY    45  36  70 N12G23    30.08R
INTNL FALLS    CLOUDY    39  26  59 NE7       30.16R WCI  34
DULUTH         CLOUDY    38  34  85 N7        30.10R WCI  33
RED WING       DRIZZLE   43  36  75 NE3       30.05S
REDWOOD FALLS  CLOUDY    43  36  76 N13G21    30.09R
MANKATO        CLOUDY    42  37  82 NE13      30.06R
WORTHINGTON    CLOUDY    40  37  89 N16       30.04F WCI  31
FAIRMONT       CLOUDY    40  38  93 N14       30.02F WCI  32
$$

...SOUTHWEST WISCONSIN...


CITY           SKY/WX    TMP DP  RH WIND       PRES   REMARKS
LA CROSSE      CLOUDY    44  41  89 N12       29.99F FOG
PRAIRIE DU CHI CLOUDY    49  41  74 NW12      29.95R
BOSCOBEL       CLOUDY    55  45  68 N8        29.94R
LONE ROCK      NOT AVBL
PLATTEVILLE    CLOUDY    60  50  69 N14       29.91R
FORT MC COY    CLOUDY    41  40  97 NE5       30.02R
MAUSTON-NEW LI DRIZZLE   41  38  91 N3        30.00R
VIROQUA        CLOUDY    42  41  98 N12       29.96R
WIS DELLS      CLOUDY    49  40  70 NE12      29.96R
$$

...ELSEWHERE IN WISCONSIN...


CITY           SKY/WX    TMP DP  RH WIND       PRES   REMARKS
MILWAUKEE      CLOUDY    45  36  70 NE16G28   29.94R
MADISON        CLOUDY    58  47  66 N13       29.93R
GREEN BAY      LGT RAIN  37  36  96 NE18G24   30.03R FOG     WCI  27
EAU CLAIRE     NOT AVBL
BLACK RVR FLS  LGT RAIN  41  41 100 NE7       30.02R
MEDFORD        LGT RAIN  37  35  93 NE8       30.01S WCI  30
WAUSAU         RAIN      38  36  92 N6        30.02R FOG     WCI  33
WIS RAPIDS     LGT RAIN  38  38 100 NE8       30.04R FOG     WCI  32
MARSHFIELD     LGT RAIN  38  37  97 NE9       30.00R FOG     WCI  31
RICE LAKE      CLOUDY    40  36  86 CALM      30.07S
$$

...NORTHEAST IOWA...


CITY           SKY/WX    TMP DP  RH WIND       PRES   REMARKS
WATERLOO       PTSUNNY   48  42  80 N14       29.93F
DUBUQUE        CLOUDY    60  48  64 N10       29.89S
DECORAH        CLOUDY    43  41  93 NE8G18    29.95R
MASON CITY     CLOUDY    43  40  89 N14G29    29.99R
CHARLES CITY   CLOUDY    43  43 100 N15       29.97R
OELWEIN        CLOUDY    48  45  87 N14G20    29.93S
$$

...ELSEWHERE IN IOWA...


CITY           SKY/WX    TMP DP  RH WIND       PRES   REMARKS
DES MOINES     LGT RAIN  49  47  93 N6        29.94R FOG
IOWA CITY      CLOUDY    68  49  50 NW13G22   29.90R
FORT DODGE     CLOUDY    43  37  81 N9        29.99R
MARSHALLTOWN   LGT RAIN  48  44  86 N12       29.91F
CEDAR RAPIDS   LGT RAIN  53  52  96 NW14      29.91R FOG
$$

...NORTHERN ILLINOIS...


CITY           SKY/WX    TMP DP  RH WIND       PRES   REMARKS
CHICAGO-OHARE  PTSUNNY   80  43  26 SW20G28   29.88S
CHICAGO-MIDWAY PTSUNNY   81  47  30 W23G33    29.89F
MOLINE         CLOUDY    75  41  29 SW20      29.88S
ROCKFORD       CLOUDY    76  45  33 W13G21    29.88F
PEORIA         MOSUNNY   76  50  40 SW15      29.90F
$$

NOTE: "FAIR" INDICATES FEW OR NO CLOUDS BELOW 12,000 FEET WITH NO
SIGNIFICANT WEATHER AND/OR OBSTRUCTIONS TO VISIBILITY. WIND
SPEEDS ARE IN MILES-PER-HOUR.




USA.gov is the U.S. government's official web portal to all federal, state and local government web resources and services.